Temp_Advection
nan nan nan nan nan nan nan nan nan nan nan nan nan nan nan nan nan nan nan nan nan nan nan nan nan nan nan nan nan nan nan nan nan nan nan nan nan nan nan nan nan nan nan nan nan nan nan nan nan nan nan nan nan nan nan nan nan nan nan nan nan nan nan nan nan nan nan nan nan
nan 0 0 0 0 0 0 0 0 0 0 0 -0 -0 0 0 0 0 0 0 0 0 0 1 1 1 1 1 1 1 1 1 0 0 0 0 0 0 0 0 0 1 1 1 1 1 1 0 -0 -0 -0 -0 -0 -0 0 0 0 0 0 0 0 0 0 0 0 0 0 0 nan
nan 0 0 0 0 -0 -0 -0 -0 -0 -0 -0 -0 0 0 0 0 0 0 0 0 1 1 0 0 0 1 1 1 1 1 1 0 0 0 0 0 0 0 0 0 1 1 1 1 1 1 1 0 -0 -0 -0 -0 0 0 0 0 0 0 0 0 0 0 0 0 0 0 0 nan
nan 0 0 -0 -0 -0 -0 -0 -0 -0 -0 -0 0 0 0 0 0 0 0 0 0 0 0 0 0 0 0 1 1 1 1 1 1 0 0 0 0 -0 -0 0 1 1 1 1 1 1 1 1 1 -0 -0 -1 -0 0 0 0 0 0 0 0 1 0 0 0 0 1 1 0 nan
nan 0 -0 -0 -0 -0 -0 -0 -0 0 0 0 0 0 0 0 0 0 0 0 0 -0 0 0 0 0 1 1 1 1 1 0 0 0 0 0 -0 0 1 1 1 1 1 1 1 1 1 1 1 0 -0 -1 -0 -0 0 0 1 1 1 1 0 0 0 0 1 1 1 1 nan
nan 0 -0 -0 -0 0 -0 0 0 0 0 0 0 0 0 0 0 0 0 0 0 0 1 1 1 1 1 1 1 1 1 0 0 0 0 0 1 2 1 0 0 0 0 1 1 1 1 1 1 1 0 -1 -1 -0 0 0 1 1 1 0 0 0 0 1 1 1 1 1 nan
nan 0 0 -0 -0 0 0 0 0 1 0 0 0 -0 -0 -0 -0 0 0 0 0 0 0 1 1 1 1 1 1 1 0 0 0 0 1 1 1 1 0 -0 0 0 0 0 1 1 1 1 1 1 0 -0 -1 -0 0 0 0 0 0 0 0 0 0 1 1 1 1 1 nan
nan 0 0 0 0 0 0 0 0 0 0 -0 -0 -0 -0 -0 0 0 0 0 0 0 0 0 1 0 0 1 0 0 0 0 0 1 1 1 -0 -0 -0 0 0 0 0 1 1 1 1 0 0 1 1 -0 -1 -1 -0 0 0 0 0 0 0 0 0 1 1 1 1 1 nan
nan 0 0 -0 -0 -0 0 0 0 0 -0 -0 -0 -0 0 0 0 0 0 0 0 0 0 0 1 1 0 0 0 0 0 0 0 0 0 0 -0 -0 0 0 0 0 1 2 1 1 0 0 0 0 1 0 0 -0 -0 -0 0 0 0 0 0 0 0 1 1 1 1 1 nan
nan 0 -0 -0 -0 -0 -0 -0 -0 -0 -0 -0 0 0 0 0 0 0 0 0 0 0 0 0 0 1 0 0 0 0 0 0 0 0 -0 -0 0 0 0 0 1 1 1 1 1 0 0 0 0 0 0 1 1 1 0 0 0 0 0 0 0 0 1 1 1 1 1 1 nan
nan -0 -0 -0 -0 -0 -0 -0 -0 0 0 0 0 0 0 0 0 0 0 0 0 0 0 0 0 0 0 0 0 0 0 0 0 0 0 0 0 0 -0 0 1 1 1 0 0 0 0 1 1 0 1 1 2 2 1 1 0 0 0 0 0 0 1 1 1 1 1 1 nan
nan 0 0 -0 -0 0 -0 0 0 0 0 0 0 0 0 0 0 0 0 0 0 0 1 1 0 0 0 -0 -0 -0 0 0 0 0 0 0 0 0 0 0 0 1 1 0 0 1 1 1 0 0 0 1 2 2 1 1 1 0 -0 -0 -0 0 1 1 1 1 1 1 nan
nan 0 0 0 0 0 0 0 0 0 0 0 0 0 0 0 0 0 0 0 1 1 1 1 0 0 -0 -0 0 -0 -0 -0 -0 0 0 0 0 0 0 0 0 0 0 0 1 2 2 1 0 0 1 1 2 1 1 1 1 1 0 -1 -1 -0 0 1 1 1 1 1 nan
nan 0 0 0 0 0 0 0 0 0 0 0 0 0 0 0 0 0 1 1 1 1 1 0 0 -0 -0 0 0 0 0 -0 -0 -0 -0 0 0 0 0 1 0 0 0 0 0 1 1 1 1 1 1 1 1 1 1 1 2 2 2 -0 -1 -1 0 1 1 1 1 1 nan
nan 0 0 0 0 0 0 0 0 0 0 0 0 0 0 0 0 1 1 1 1 1 0 0 0 -0 -0 0 0 0 0 0 -0 -0 -0 0 0 0 1 1 0 0 0 0 0 0 1 1 1 1 1 1 1 1 1 1 2 3 3 0 -2 -1 0 1 1 1 1 1 nan
nan 0 0 0 0 0 0 0 0 0 0 0 0 0 0 1 1 1 1 1 0 0 0 0 0 0 0 0 0 0 -0 -0 -0 -0 -0 -0 0 0 1 1 0 0 0 0 0 0 1 1 2 1 1 1 1 1 1 2 3 4 3 -0 -2 -1 0 1 1 1 0 0 nan
nan 0 0 0 0 0 0 0 0 0 0 0 0 0 1 1 1 1 0 0 -0 -0 0 0 0 0 0 0 0 0 -0 -0 -0 -0 -0 -0 -0 0 0 1 1 0 0 0 0 0 0 1 1 1 1 1 1 1 2 3 4 4 1 -1 -2 -1 1 1 1 0 0 0 nan
nan 0 0 0 0 0 0 0 0 0 0 0 1 1 1 1 0 0 -0 -0 -0 0 0 0 0 0 0 0 0 -0 -0 -0 -0 -0 -0 -0 -0 0 0 0 0 0 0 0 0 0 0 1 1 1 1 1 1 2 2 3 4 3 -0 -2 -2 -0 1 1 1 0 0 0 nan
nan 0 0 0 0 0 0 0 0 0 0 0 1 1 1 0 0 -0 -0 -0 0 0 0 0 0 0 0 0 0 -0 -0 0 0 0 -0 -0 -0 0 0 0 0 0 0 0 0 1 1 1 1 1 1 1 2 2 2 3 3 1 -1 -2 -1 -0 1 1 0 0 0 0 nan
nan 0 0 0 0 0 0 0 0 0 0 0 1 1 0 0 -0 -0 -0 0 0 0 0 0 0 0 0 -0 -0 0 0 0 0 0 -0 -0 0 0 -0 -0 -0 0 0 1 1 1 1 1 1 1 1 2 2 2 2 3 2 0 -1 -1 -1 0 1 0 0 0 0 0 nan
nan 0 0 0 0 0 0 0 0 0 0 0 0 0 0 0 0 0 0 0 0 0 0 0 0 0 -0 -0 -0 0 0 0 0 -0 -0 -0 -0 -0 -0 0 0 0 1 1 1 1 0 0 1 1 1 2 1 1 2 2 1 -0 -1 -2 -1 0 0 0 0 0 0 1 nan
nan 0 0 0 0 0 0 0 0 0 0 0 0 0 0 0 0 0 0 0 0 0 0 0 0 -0 -0 -0 0 0 0 0 0 -0 -0 -0 -0 -0 0 0 0 1 1 1 1 0 0 1 1 1 1 1 1 1 2 2 0 -1 -2 -2 -0 0 0 0 0 0 1 1 nan
nan 0 0 0 0 0 0 0 0 0 0 0 0 0 0 0 0 0 0 0 0 0 0 0 -0 -0 -0 0 0 0 0 0 0 0 -0 0 0 0 0 0 0 0 1 1 1 1 1 1 1 1 1 1 1 1 1 1 -1 -2 -2 -1 0 0 0 0 0 0 0 0 nan
nan 0 0 0 0 0 0 0 0 0 0 0 0 0 0 0 0 0 0 0 0 0 0 -0 -0 -0 0 0 0 0 0 0 0 0 -0 0 0 0 0 0 0 0 0 0 1 1 1 1 1 1 1 1 1 1 1 -1 -1 -1 -0 0 1 0 0 0 0 0 0 0 nan
nan 0 0 0 0 0 0 0 0 0 0 0 0 0 0 0 0 0 0 0 0 0 0 -0 -0 0 0 0 0 0 0 0 0 0 -0 0 0 0 0 0 1 0 0 0 0 1 1 1 1 1 1 1 1 1 -0 -1 -1 -0 0 1 0 0 0 0 0 0 0 0 nan
nan 0 0 0 0 0 0 0 0 0 0 0 0 0 0 0 0 0 0 0 0 0 0 -0 0 0 0 0 0 0 0 0 0 0 0 0 0 0 0 0 1 0 0 0 1 1 1 1 1 1 1 1 1 -0 -1 -1 -0 0 1 0 0 0 0 0 1 1 1 1 nan
nan 0 0 0 0 0 0 0 0 0 0 0 0 0 0 0 0 0 0 0 0 0 0 0 0 0 0 0 0 0 1 0 0 0 0 -0 -0 0 0 0 0 0 1 1 1 1 1 1 1 1 1 1 -0 -1 -1 -1 0 1 1 0 0 0 1 1 1 1 1 1 nan
nan -0 -0 -0 -0 -0 -0 -0 -0 0 0 0 0 0 0 0 0 0 0 0 0 0 0 0 0 0 0 0 0 0 0 1 0 0 0 -0 -0 0 0 0 0 1 1 1 1 1 1 1 0 1 0 -0 -1 -1 -1 0 1 1 0 0 0 0 1 1 1 1 1 0 nan
nan -0 -0 -0 -0 0 0 0 0 0 0 0 1 1 1 1 0 0 0 0 0 0 0 0 0 0 0 0 0 0 0 1 0 0 0 -0 -0 0 0 0 0 1 1 1 1 1 1 0 0 0 -0 -0 -1 -1 -0 1 1 0 0 0 0 1 1 1 1 1 0 0 nan
nan -0 -0 0 0 0 0 0 1 1 1 1 1 1 1 0 0 0 0 0 0 0 0 0 0 0 0 0 0 0 0 1 0 0 0 -0 -0 0 0 0 1 1 1 1 1 0 0 0 0 -0 -0 -1 -0 -0 0 1 0 0 0 0 0 0 1 1 1 0 0 0 nan
nan -0 0 0 0 0 0 0 0 0 0 0 0 0 0 0 0 0 0 0 0 0 0 0 0 0 0 0 0 0 0 0 0 0 0 0 0 0 0 0 1 1 1 1 0 0 0 0 -0 -0 -0 -0 -0 0 1 0 0 0 0 0 0 0 0 1 0 0 0 0 nan
nan -0 0 0 0 0 0 0 0 0 0 0 0 0 0 0 0 0 0 0 0 0 0 0 0 0 0 0 0 0 0 0 0 0 0 0 0 0 0 0 1 1 0 0 0 0 -0 -0 -0 -0 -0 -0 0 0 0 0 0 0 0 0 0 0 0 0 0 0 0 0 nan
nan -0 0 0 0 0 0 0 0 0 0 0 0 0 0 0 0 0 0 0 0 0 0 1 1 1 0 0 0 0 0 0 0 0 0 0 0 0 0 0 0 0 0 0 0 -0 -0 -0 -0 -0 -0 0 0 0 0 0 0 0 0 0 0 0 0 0 0 0 0 0 nan
nan 0 0 -0 -0 0 0 0 0 0 0 0 0 0 0 0 0 0 0 0 0 0 1 1 1 1 0 1 1 0 0 0 0 0 0 0 0 0 0 0 0 0 0 0 -0 -0 -0 -0 -0 -0 0 0 0 0 0 0 0 0 0 0 0 0 0 0 0 0 0 0 nan
nan 0 0 0 0 0 0 0 0 0 0 0 0 0 0 0 0 0 0 0 0 1 1 1 1 1 1 1 0 0 0 0 0 0 0 0 0 0 0 0 0 0 0 -0 -0 -0 -0 -0 -0 0 0 0 0 0 0 0 0 0 0 0 0 0 0 1 1 0 0 0 nan
nan 0 0 0 0 0 0 0 0 0 0 0 0 0 0 1 1 0 0 0 1 1 1 1 1 1 1 1 1 1 0 0 0 0 0 0 0 0 0 0 0 0 -0 -0 -0 -0 -0 0 0 0 0 0 0 0 0 0 0 0 0 0 0 0 0 1 1 0 0 0 nan
nan 0 0 0 0 0 0 0 0 0 1 1 1 1 1 1 1 0 0 1 1 1 1 1 1 1 1 1 1 0 0 0 0 0 0 0 0 0 0 0 0 -0 -0 -0 -0 -0 0 0 0 0 0 0 0 0 0 0 0 0 0 0 0 1 1 1 0 0 0 0 nan
nan 0 0 0 0 0 0 0 1 1 1 1 1 1 0 1 1 0 0 1 1 1 1 1 1 1 0 0 0 0 0 0 0 0 0 0 0 0 0 0 -0 -0 -0 -0 0 0 0 0 0 0 0 0 0 0 0 0 0 0 0 1 1 1 0 0 0 0 0 0 nan
nan 0 0 0 0 0 0 1 1 1 1 0 0 0 0 1 0 0 0 1 1 1 1 1 0 0 0 0 0 0 0 0 0 0 0 0 0 -0 -0 -0 -0 0 0 0 0 0 0 0 0 0 0 0 1 1 1 0 0 1 1 1 1 0 0 0 0 0 0 0 nan
nan 0 0 0 0 0 1 1 1 0 0 0 0 0 0 0 0 0 0 1 1 1 1 0 0 0 0 0 0 0 0 0 -0 0 0 0 -0 -0 -0 -0 0 0 0 0 0 0 0 0 0 1 1 1 1 1 1 1 1 1 1 1 1 0 0 0 0 0 0 0 nan
nan nan nan nan nan nan nan nan nan nan nan nan nan nan nan nan nan nan nan nan nan nan nan nan nan nan nan nan nan nan nan nan nan nan nan nan nan nan nan nan nan nan nan nan nan nan nan nan nan nan nan nan nan nan nan nan nan nan nan nan nan nan nan nan nan nan nan nan nan
Wind_Speed
42 42 42 42 42 42 42 42 41 41 40 40 40 39 39 39 38 38 38 37 37 36 35 34 33 32 32 32 32 32 33 33 34 35 36 36 36 35 33 33 33 34 34 32 31 29 28 28 28 29 29 30 30 30 29 27 25 24 23 22 21 20 19 18 17 17 16 15 14
41 42 42 42 42 42 41 41 41 40 40 39 39 39 39 39 38 38 38 37 37 36 35 34 33 32 32 31 31 32 32 33 34 35 36 36 36 35 34 33 34 35 36 34 32 30 29 28 28 29 29 30 31 31 30 29 27 25 24 23 22 21 20 19 18 17 16 15 15
41 41 42 42 41 41 41 40 40 40 40 39 39 38 38 38 38 38 38 37 36 35 34 33 32 32 31 31 31 31 32 33 34 35 36 37 37 37 36 35 36 36 36 35 33 31 30 29 28 29 29 30 31 31 31 30 28 26 25 24 23 22 21 19 18 17 16 15 15
40 41 41 41 41 41 40 40 40 40 39 39 38 38 38 38 38 38 37 36 35 35 34 33 32 31 31 30 30 30 30 31 32 34 35 37 38 39 38 37 37 37 37 35 34 32 31 30 29 29 29 30 31 31 31 30 29 28 26 25 24 23 21 20 19 18 16 15 14
40 40 41 41 40 40 40 40 39 39 39 38 38 38 38 38 37 37 37 36 35 35 34 33 32 31 30 30 29 29 30 30 31 33 35 38 39 39 39 38 37 37 36 35 34 33 32 31 30 29 29 29 30 30 30 30 29 28 27 26 25 24 22 21 19 18 16 14 13
38 39 40 40 40 39 39 39 39 38 38 38 38 38 38 37 37 37 36 36 35 34 33 32 31 31 30 29 29 28 28 29 30 33 36 39 40 39 37 37 37 37 37 36 35 34 33 32 31 29 29 29 30 30 30 30 29 29 28 27 26 24 23 21 20 18 16 14 13
36 37 38 38 39 38 38 38 38 37 37 37 37 37 36 36 36 36 35 35 34 33 32 32 31 30 29 29 28 28 27 27 29 32 36 38 38 36 35 36 36 37 37 37 36 35 34 33 31 30 29 29 30 30 30 29 30 29 29 27 26 25 23 22 20 18 15 13 12
34 35 36 36 37 37 37 36 36 36 36 35 35 35 34 34 35 34 34 33 33 32 31 31 30 29 28 28 27 27 27 27 28 31 35 36 36 35 35 35 36 37 37 37 36 36 34 33 31 30 30 30 30 30 29 29 29 30 29 28 27 26 24 22 19 17 15 13 11
32 33 34 34 34 35 34 34 34 33 33 33 32 32 32 32 33 33 32 32 31 31 30 29 29 28 27 27 27 26 26 27 28 30 32 34 34 34 34 35 36 37 37 37 37 35 34 33 32 31 30 30 31 30 30 29 29 30 29 29 28 26 24 22 19 17 15 13 11
30 31 32 32 32 32 32 32 31 31 31 31 30 31 31 31 31 31 31 30 29 29 28 28 27 26 26 26 26 25 26 26 27 28 30 31 32 32 33 34 35 36 36 36 36 35 34 33 33 32 32 32 31 31 31 30 30 30 29 29 29 27 25 23 20 17 15 13 11
27 28 29 29 30 30 30 30 30 30 30 30 30 30 30 30 30 29 29 28 28 27 27 25 25 25 24 24 24 24 24 25 25 26 28 29 30 30 30 31 33 34 34 35 36 35 34 34 34 34 33 33 32 32 32 31 30 30 29 29 29 28 26 23 20 17 15 14 11
24 25 26 26 27 27 28 28 28 28 28 29 28 28 28 28 28 28 27 27 27 26 24 23 23 22 22 21 21 22 23 24 25 26 27 28 29 29 29 30 32 34 35 36 36 36 35 35 34 34 34 33 33 32 32 31 30 30 29 29 28 27 25 22 20 18 16 14 12
21 22 23 24 25 26 26 27 27 27 27 27 27 27 26 26 26 26 26 26 25 24 22 22 21 20 20 19 19 20 21 23 24 26 27 27 28 29 30 30 32 34 35 36 36 37 37 36 35 34 34 33 33 32 31 30 30 29 29 28 27 25 23 21 19 18 16 14 11
18 20 21 22 23 24 24 25 25 25 25 25 25 25 25 25 25 24 24 24 23 22 21 21 20 20 19 18 18 19 20 21 23 25 26 27 29 29 30 30 31 32 33 34 35 37 38 38 37 35 34 33 32 32 31 30 30 29 29 27 26 24 22 20 19 18 16 13 11
17 18 19 20 21 22 23 24 24 24 24 23 23 23 23 23 23 23 23 22 21 21 21 20 20 19 19 18 18 18 19 20 21 23 25 26 28 28 29 29 30 31 32 33 34 36 39 40 39 37 34 33 32 31 31 31 30 29 27 26 24 23 21 19 19 17 14 11 10
16 17 18 19 20 21 21 22 22 22 22 22 21 21 22 22 22 22 21 21 20 20 20 20 19 18 18 18 18 18 18 19 20 21 22 24 25 26 27 28 28 29 30 31 33 35 37 39 39 38 35 33 32 31 30 30 29 27 25 23 22 21 20 19 17 15 12 11 9
16 17 17 18 19 19 20 20 20 20 20 20 20 20 20 20 20 20 20 19 19 19 19 18 18 17 17 17 17 18 18 18 19 19 20 21 22 23 24 25 26 27 27 29 30 32 34 36 37 37 35 33 32 30 29 28 27 24 22 21 21 21 20 19 16 14 11 9 7
16 16 17 17 18 18 18 19 19 19 19 19 19 19 19 19 19 19 18 18 18 18 17 17 17 17 17 17 17 17 17 18 18 18 19 20 20 21 22 23 23 24 25 25 26 28 30 32 33 34 34 33 31 30 28 26 24 22 20 20 21 21 20 18 15 13 10 8 7
15 16 16 16 17 17 17 17 18 18 18 18 18 18 18 18 18 18 18 17 17 17 16 16 16 16 16 16 17 17 17 17 17 17 18 19 19 20 20 21 22 22 23 24 24 26 27 28 30 31 31 31 30 28 27 25 22 20 19 20 21 21 20 18 15 12 10 9 9
15 15 15 15 15 16 16 16 16 17 17 17 18 18 18 18 18 17 17 17 16 16 16 16 16 16 16 16 16 17 17 17 17 17 17 18 19 19 20 20 21 22 23 23 24 24 24 25 26 26 27 27 27 27 26 23 20 19 19 20 21 21 20 17 14 12 11 11 11
14 14 14 14 14 15 15 16 16 16 17 17 18 18 18 18 18 17 17 16 16 16 16 16 16 16 16 16 16 16 16 16 17 17 17 18 18 19 20 21 22 22 23 23 22 22 21 21 22 22 23 24 24 25 24 21 19 19 19 20 21 21 19 16 14 12 12 12 11
13 13 14 14 14 15 15 16 16 17 17 17 18 18 18 18 18 17 17 16 16 16 16 16 16 16 16 16 16 16 16 16 16 17 17 18 18 19 20 21 22 22 22 21 20 19 18 18 19 19 20 21 22 22 21 19 18 18 19 21 21 20 18 16 14 13 12 12 10
13 13 14 14 15 15 16 16 17 17 17 18 18 18 18 18 17 17 17 17 17 16 16 16 16 16 16 16 16 16 16 16 16 17 17 18 19 19 20 21 22 22 21 20 18 17 16 16 17 18 18 19 19 19 18 17 16 17 19 20 20 19 17 15 14 13 12 10 9
13 14 14 15 15 16 16 17 17 17 18 18 18 18 18 18 17 17 17 17 17 16 16 16 16 16 16 16 16 16 16 15 15 16 17 17 18 18 19 20 20 20 19 18 17 16 15 15 15 16 17 17 18 17 16 16 17 18 19 20 19 18 16 14 13 12 11 10 9
13 14 14 15 15 16 16 17 17 17 17 17 17 17 17 17 17 17 17 16 16 16 16 16 16 16 16 16 16 16 16 15 15 15 16 16 17 17 18 18 18 17 16 15 14 14 14 15 15 15 16 16 16 16 16 17 18 19 19 19 18 16 15 14 13 12 11 10 9
13 14 14 15 15 15 16 16 16 16 16 16 16 16 16 16 16 16 16 16 16 16 16 16 16 16 16 16 16 16 15 15 14 15 15 15 16 17 17 17 16 15 14 13 13 14 14 15 15 15 16 16 16 16 17 18 19 19 19 18 16 15 14 13 12 11 11 10 10
13 14 14 14 15 15 15 15 15 15 15 15 15 15 15 15 15 15 15 15 16 16 16 16 16 16 16 16 16 15 15 14 14 15 15 16 16 17 17 16 16 15 13 13 13 14 14 15 15 15 16 16 16 17 19 19 19 19 18 16 15 14 13 12 12 11 11 11 11
13 13 13 14 14 14 14 14 14 14 14 14 14 14 14 15 15 15 15 15 16 16 16 16 16 16 16 16 15 15 15 14 14 15 15 16 16 17 17 16 15 14 13 13 13 13 14 14 15 16 16 17 18 19 20 20 19 18 17 15 14 13 12 12 11 11 11 11 12
12 13 13 13 13 13 13 13 13 13 13 14 14 14 14 15 15 15 15 16 16 16 16 16 16 16 16 15 15 15 15 15 15 15 15 16 16 17 17 16 15 14 13 13 13 13 13 14 15 16 17 18 19 20 20 20 19 17 15 14 13 12 11 10 10 10 11 12 13
12 12 12 13 13 13 13 13 13 13 13 13 14 14 14 15 15 15 15 16 16 16 16 16 16 16 15 15 15 15 15 15 15 15 15 15 16 16 16 16 15 14 13 13 13 13 13 14 15 17 18 19 20 20 21 20 18 16 14 12 11 10 10 9 10 11 12 13 14
12 12 12 12 12 12 12 12 12 13 13 13 14 14 14 14 15 15 15 15 15 16 16 16 16 16 15 15 15 15 15 15 15 15 15 15 16 16 16 15 14 13 12 12 13 13 14 15 16 17 18 19 20 21 21 20 17 15 13 11 10 9 9 9 10 12 13 14 15
11 11 11 11 11 11 11 12 12 12 13 13 13 14 14 14 14 15 15 15 16 16 16 16 16 16 16 16 16 16 16 15 15 14 14 15 15 16 15 14 13 12 12 12 13 14 15 16 17 18 19 20 21 21 21 19 16 14 12 10 9 9 9 10 12 13 14 15 16
11 11 11 11 11 11 11 11 12 12 12 13 13 14 14 14 15 15 15 16 16 16 16 16 16 16 16 16 15 15 15 14 14 14 14 15 15 15 14 12 12 11 12 13 14 14 15 17 18 18 19 20 21 21 20 18 15 13 11 10 10 10 11 12 13 14 16 17 18
11 11 11 11 11 11 11 11 12 12 12 13 13 14 14 14 14 15 15 15 16 16 16 16 16 16 16 16 15 15 15 14 14 14 14 14 14 13 12 11 11 12 12 14 15 16 16 17 18 19 20 20 21 21 19 17 14 12 11 10 10 11 12 13 15 16 18 19 19
11 11 11 11 11 11 11 12 12 12 12 13 13 13 14 14 14 15 15 15 16 16 16 16 16 16 16 16 15 15 14 14 14 14 14 14 13 12 11 11 11 12 14 15 16 16 17 18 18 19 20 21 21 20 18 16 14 12 11 11 11 12 13 15 16 17 18 19 19
11 11 11 11 11 11 11 11 12 12 12 12 13 13 13 13 14 14 15 15 15 15 15 15 15 15 15 15 15 14 13 14 14 14 14 13 12 11 11 12 12 13 15 16 17 17 18 18 19 19 20 21 21 19 17 15 14 13 12 12 12 13 14 16 17 18 18 18 18
11 11 11 11 11 11 11 11 11 12 12 12 12 12 12 13 13 14 14 15 15 14 15 15 14 14 14 14 13 13 13 14 14 14 13 12 12 12 12 12 13 15 16 17 17 18 18 18 19 20 20 21 20 19 17 15 14 14 14 14 14 14 15 16 17 18 18 18 18
11 10 10 11 11 11 11 11 11 11 11 11 11 11 12 12 13 13 14 14 14 13 13 14 13 13 13 13 12 13 13 14 14 13 12 12 12 12 13 13 14 16 16 17 17 17 18 18 19 20 20 20 19 18 17 16 16 16 16 16 16 16 16 17 17 17 18 18 19
10 10 10 10 10 10 10 10 10 10 11 11 11 11 12 12 12 13 14 14 14 13 13 13 12 12 13 13 13 13 14 14 14 13 12 12 13 13 14 14 15 16 17 17 17 17 17 18 18 19 20 20 19 18 18 17 17 17 18 17 17 17 17 17 17 18 19 20 21
9 9 9 9 9 10 10 10 10 10 10 11 11 11 12 12 12 13 13 13 13 13 13 12 12 13 13 13 13 13 14 14 13 13 13 13 13 14 15 15 16 16 16 16 16 16 17 17 18 18 19 19 19 19 18 18 18 19 19 18 18 17 17 18 19 20 21 22 23
9 9 9 9 9 9 9 9 10 10 10 10 11 11 11 11 11 11 12 12 12 12 12 12 12 13 13 14 14 14 14 13 13 13 13 13 14 15 15 16 16 16 16 16 16 16 16 16 17 18 18 18 19 19 19 19 19 19 19 18 18 18 18 19 21 22 23 24 24
Wind_Direction
229 230 231 232 233 234 235 237 238 240 241 243 244 246 249 251 252 254 255 256 258 259 260 260 260 260 259 257 255 252 248 246 245 246 247 248 249 250 251 251 250 247 243 239 237 236 236 235 234 234 234 235 236 237 238 239 239 240 241 243 245 247 250 252 255 258 261 263 264
229 230 231 232 233 234 236 237 238 240 241 243 245 248 250 252 253 255 256 258 259 261 262 262 263 262 261 260 258 255 252 249 249 249 250 251 251 252 252 251 250 247 242 238 236 236 236 236 235 234 234 235 236 237 238 238 239 239 241 243 245 247 248 250 252 254 257 260 261
229 230 231 232 234 235 236 237 239 240 242 244 246 248 250 252 254 256 257 259 261 262 263 263 265 265 265 263 261 258 256 254 253 253 253 253 252 250 249 249 247 244 240 237 236 236 237 237 236 235 235 235 236 237 238 239 239 240 241 243 245 246 248 248 250 251 254 256 258
229 230 231 233 235 236 238 239 241 243 245 246 247 249 251 252 254 256 258 260 261 262 263 265 266 267 268 267 266 263 261 259 258 258 257 253 250 247 245 244 243 242 240 238 236 237 238 238 237 237 237 237 238 238 239 240 241 242 243 244 245 246 247 248 248 250 251 253 254
230 230 232 235 237 239 241 242 244 245 247 248 249 250 251 253 254 256 258 259 261 263 264 266 267 268 269 269 269 266 263 262 263 262 257 251 248 244 242 241 241 241 240 238 237 237 238 239 238 237 238 238 239 240 241 242 242 243 244 245 246 247 247 247 248 248 249 250 251
230 231 233 235 238 240 242 243 245 246 247 248 249 250 252 254 255 257 259 261 263 265 266 267 268 269 269 270 269 268 265 265 266 262 256 250 246 243 240 240 241 241 241 240 238 238 238 239 239 238 237 238 240 241 242 243 243 244 245 245 246 247 247 247 247 248 248 248 247
232 233 233 235 238 240 241 243 244 246 247 248 249 251 253 255 257 259 261 263 265 266 267 268 269 269 270 270 270 270 270 269 269 263 255 247 245 243 242 242 243 243 242 241 240 239 239 240 238 238 237 237 239 241 243 244 244 244 245 246 247 247 247 247 247 247 246 244 241
234 234 235 236 238 240 242 243 245 246 247 249 251 253 255 257 259 261 262 264 265 267 268 269 270 271 272 272 272 272 272 271 270 262 253 248 247 247 247 248 247 246 245 244 242 240 240 240 240 239 238 237 238 240 243 244 245 245 246 246 247 247 247 247 247 246 244 239 234
234 235 236 237 239 241 243 245 246 248 249 251 253 255 257 258 260 261 263 264 266 268 269 271 272 273 274 274 273 273 272 270 269 264 258 255 253 254 255 254 253 251 248 246 243 242 241 241 241 241 239 237 237 239 242 244 245 246 246 246 247 247 248 247 247 244 239 233 229
234 235 236 237 239 241 243 245 248 249 251 253 255 256 257 259 260 261 263 265 267 269 270 272 273 274 274 274 274 274 272 270 269 265 262 262 262 262 262 262 258 253 249 246 244 243 243 242 242 242 240 238 237 238 240 242 243 244 245 246 246 247 248 247 245 241 234 229 229
236 236 237 238 240 242 244 246 248 250 251 253 254 256 257 259 260 262 264 266 267 269 271 273 274 275 276 276 276 275 274 272 270 269 267 266 266 266 266 266 262 256 251 249 247 246 244 243 242 242 242 240 238 237 237 239 241 243 244 245 245 245 246 245 243 237 230 227 232
237 238 239 240 242 243 244 246 247 249 251 252 254 255 257 259 261 263 264 266 268 270 272 274 275 276 277 277 277 275 274 272 270 269 267 267 266 266 266 265 264 261 257 255 254 250 247 245 244 245 245 244 241 239 237 237 238 240 242 243 244 244 243 242 239 233 228 229 237
237 238 239 241 242 243 245 246 248 249 251 252 254 256 258 260 261 263 265 266 268 271 273 274 275 275 276 276 276 275 274 273 272 270 269 267 266 265 264 263 262 261 260 259 258 256 252 250 249 248 248 248 247 246 244 242 240 240 241 242 243 243 242 240 235 230 228 231 243
237 237 238 240 241 242 244 245 247 249 250 252 254 256 258 260 262 263 265 267 269 271 272 273 274 274 274 274 274 274 274 275 275 275 273 271 268 266 264 262 261 260 260 259 259 258 257 255 253 252 251 253 254 255 255 252 248 242 239 241 243 244 242 237 231 228 228 235 251
234 235 237 238 239 241 243 244 246 248 250 252 255 257 259 260 262 263 265 267 269 271 272 273 273 274 275 274 273 272 273 274 275 276 276 275 273 270 266 263 260 259 259 259 259 258 258 257 256 255 255 256 259 260 260 258 251 244 238 238 242 244 240 232 227 227 231 243 258
232 234 235 236 237 239 241 243 245 247 250 252 254 256 258 260 262 263 265 267 269 271 272 273 275 275 275 274 273 271 271 272 273 274 276 277 277 275 271 266 263 262 261 260 260 260 259 259 259 258 258 259 260 261 259 256 249 241 236 237 240 240 235 227 225 228 238 252 260
230 232 233 235 236 238 240 242 244 247 249 252 254 256 258 260 262 263 265 267 270 272 273 275 276 276 276 275 274 272 271 270 270 270 272 276 278 278 276 273 270 268 267 265 264 264 263 262 261 261 260 261 260 259 255 250 244 238 235 237 239 236 229 224 225 233 244 254 248
229 231 232 234 236 238 240 242 245 247 250 252 254 257 259 262 263 265 267 270 272 274 275 277 277 277 277 275 274 273 272 271 271 270 270 273 276 277 277 277 276 275 274 272 271 269 267 266 265 264 263 262 259 255 250 245 239 234 233 236 236 231 225 223 227 236 243 240 221
229 231 232 234 236 239 241 244 247 249 252 254 257 259 262 264 266 268 269 271 273 275 277 277 277 277 276 275 275 274 273 272 271 270 270 271 272 273 274 275 275 275 275 274 273 271 270 268 267 267 265 262 258 253 248 242 235 231 231 233 232 228 224 224 230 234 233 223 214
230 232 234 236 239 241 244 247 250 253 255 257 259 261 263 265 268 269 271 272 274 275 276 276 276 276 275 275 275 276 275 274 272 270 269 269 269 269 270 272 272 272 272 272 272 271 271 270 269 268 266 262 257 252 247 240 231 227 228 230 228 225 223 226 229 230 227 222 222
230 233 236 239 242 244 247 250 252 255 256 258 259 261 263 265 267 269 271 273 274 274 274 274 274 274 274 274 275 276 276 275 274 272 270 268 267 267 268 269 270 270 271 271 271 270 270 269 269 268 265 261 257 252 247 239 229 225 227 228 226 224 223 225 224 224 223 225 231
230 234 237 240 243 246 248 251 253 255 256 258 260 261 263 264 266 269 270 271 271 271 271 272 272 272 272 273 274 275 275 275 274 272 271 269 268 266 266 266 268 270 271 271 269 267 266 266 266 265 264 261 257 252 245 237 228 226 227 227 224 222 221 221 219 218 221 228 237
230 234 237 240 243 246 248 250 252 254 256 257 259 261 262 264 265 266 267 267 268 268 269 269 269 269 270 271 272 272 273 273 273 272 271 271 269 268 267 268 269 270 271 270 267 265 263 263 263 263 262 259 255 249 241 232 226 226 226 223 220 218 217 216 214 216 221 229 235
230 234 237 240 242 245 247 249 251 252 254 256 258 259 261 262 263 264 264 265 266 267 267 267 267 268 269 270 270 271 271 271 271 271 271 271 272 272 272 272 273 273 272 269 266 263 261 260 260 260 258 256 252 244 235 226 224 222 220 216 215 214 214 213 213 216 221 226 233
229 232 235 237 240 242 244 246 248 250 252 253 255 257 258 259 261 262 263 264 264 265 265 265 266 267 268 269 269 269 268 268 267 267 268 270 272 274 275 276 276 275 272 268 264 260 256 254 253 254 254 251 245 236 227 222 220 216 213 211 211 211 212 212 214 217 221 228 239
226 229 231 233 235 237 239 241 243 245 247 249 251 252 254 256 258 259 260 262 263 263 264 264 265 266 266 267 267 267 266 265 263 262 263 265 268 271 274 276 277 274 270 264 259 256 252 250 248 247 246 243 235 227 221 218 214 210 207 207 209 211 212 213 215 220 227 239 253
222 224 225 227 229 231 233 235 237 239 241 242 245 247 249 251 253 255 257 258 260 261 262 262 263 263 263 263 263 264 263 262 261 260 260 261 265 269 272 274 274 271 266 261 257 254 251 249 245 242 237 232 226 221 217 213 208 205 205 206 208 210 212 216 221 229 241 256 271
217 218 219 221 223 225 227 228 230 232 234 236 239 241 244 247 249 251 253 255 257 258 259 260 260 261 261 261 262 262 262 261 259 258 258 259 262 266 270 272 272 269 264 260 256 253 251 247 242 236 229 222 218 215 212 208 204 203 204 207 209 211 215 221 230 243 258 273 285
212 213 214 215 218 219 221 223 226 228 231 233 236 239 242 245 247 250 252 254 255 257 258 260 260 260 261 261 262 262 262 261 259 258 258 258 261 265 268 270 269 266 263 258 254 251 247 242 236 228 221 215 212 209 206 203 201 202 204 207 210 214 219 229 241 257 274 288 295
209 209 210 213 214 217 219 222 225 228 230 233 236 239 243 245 247 250 252 253 255 257 258 259 260 260 260 261 261 261 261 261 259 258 257 257 260 264 267 268 267 264 260 255 249 245 240 235 228 221 215 210 207 205 202 200 200 202 205 208 212 218 227 239 255 273 288 297 299
206 207 209 211 214 216 219 222 225 228 231 234 237 240 242 245 247 249 251 253 254 255 256 256 257 257 258 257 257 258 258 258 257 256 255 255 258 262 264 265 264 260 255 249 242 236 231 225 220 215 211 207 204 201 199 200 202 205 208 212 217 226 240 256 272 286 295 297 296
204 205 208 210 213 216 219 222 225 228 231 234 236 239 241 243 245 247 248 249 250 251 252 253 254 254 254 254 255 255 255 255 255 253 252 253 256 260 261 261 258 253 247 239 233 227 222 217 214 211 208 205 202 200 200 202 205 209 214 219 227 241 256 270 281 289 293 293 292
202 204 206 209 212 214 217 220 223 226 229 232 235 237 239 241 243 244 245 247 248 249 250 251 252 252 252 252 252 251 252 251 250 248 249 251 254 257 257 253 249 243 236 229 223 217 214 211 209 208 206 204 201 200 201 205 210 214 220 227 239 254 267 278 285 290 292 291 289
199 202 204 207 210 212 215 218 221 225 227 230 233 236 238 240 242 243 245 246 247 248 248 248 248 248 248 247 247 246 245 243 241 241 244 247 250 250 248 243 238 231 224 218 213 210 208 207 207 207 206 204 202 202 204 208 213 220 227 237 250 264 276 284 289 292 292 289 284
197 200 203 206 209 211 214 217 220 223 226 229 232 235 238 240 242 243 245 245 246 246 246 246 245 244 243 242 241 240 238 235 234 236 239 242 242 240 237 232 226 220 215 210 207 205 205 205 206 206 206 205 204 204 207 212 217 225 234 245 259 272 281 287 290 290 287 282 276
194 197 201 204 207 210 212 216 219 222 225 228 232 235 237 240 241 242 243 244 244 244 244 244 243 242 241 240 238 235 232 230 231 233 234 235 232 229 226 222 216 211 207 204 203 203 204 205 206 207 206 206 206 207 211 216 222 230 239 249 264 275 282 285 285 283 279 274 271
191 194 198 201 205 208 211 214 217 221 225 228 232 234 236 238 239 240 241 242 242 242 241 241 241 240 239 237 233 229 225 225 227 229 229 227 223 219 216 213 208 204 202 201 202 203 205 206 208 208 208 208 209 211 216 222 229 236 244 253 263 271 277 279 279 276 273 272 273
189 192 196 199 203 206 209 212 216 220 224 227 229 230 232 233 235 236 238 238 238 238 238 238 236 235 233 229 224 220 218 221 223 224 222 218 214 212 209 205 201 199 199 200 202 204 207 209 210 210 211 211 213 217 222 228 235 242 249 257 264 270 274 275 275 274 274 275 278
187 191 194 198 200 203 206 210 213 217 220 223 225 226 227 229 231 232 234 235 235 235 234 232 230 228 225 221 216 214 214 217 218 217 214 210 208 205 203 199 196 196 197 200 203 206 209 211 213 214 215 217 220 224 229 235 242 248 255 262 268 272 274 275 276 276 277 279 281
187 189 192 195 198 200 203 206 209 212 215 218 220 222 224 225 227 229 231 232 233 232 230 228 225 222 219 215 211 211 211 213 213 211 208 205 203 201 197 194 193 194 197 201 204 208 212 215 217 219 221 224 227 231 236 242 249 255 261 267 272 275 276 277 278 279 280 281 283
186 188 190 193 194 196 199 202 205 208 210 214 216 219 221 224 225 227 229 229 229 228 226 223 221 219 216 212 209 208 208 209 208 207 204 202 200 197 194 191 191 193 196 201 206 210 215 218 221 224 228 231 235 239 243 248 254 260 266 271 275 278 279 279 279 280 282 283 285
Height
1477 1478 1479 1480 1481 1482 1484 1485 1486 1488 1489 1490 1491 1493 1494 1495 1496 1497 1498 1499 1501 1502 1503 1504 1506 1507 1508 1509 1510 1511 1512 1513 1514 1515 1515 1516 1516 1517 1517 1518 1519 1519 1519 1520 1521 1522 1523 1524 1525 1526 1526 1527 1528 1529 1529 1530 1530 1531 1531 1531 1531 1531 1532 1532 1532 1532 1532 1531 1531
1476 1477 1478 1479 1480 1481 1483 1484 1486 1487 1488 1490 1491 1492 1493 1494 1495 1496 1497 1498 1499 1501 1502 1503 1505 1506 1507 1508 1509 1510 1511 1512 1512 1513 1513 1514 1514 1515 1515 1516 1516 1517 1517 1518 1519 1520 1521 1522 1523 1524 1525 1526 1526 1527 1528 1528 1529 1529 1530 1530 1530 1530 1531 1531 1531 1531 1531 1530 1530
1475 1476 1477 1478 1479 1480 1482 1483 1484 1486 1487 1489 1490 1491 1492 1493 1494 1495 1496 1497 1498 1500 1501 1502 1503 1505 1506 1507 1508 1509 1509 1510 1511 1511 1511 1511 1511 1511 1512 1513 1514 1514 1515 1516 1518 1519 1520 1521 1522 1523 1523 1524 1524 1525 1526 1527 1527 1528 1528 1529 1529 1529 1529 1529 1529 1529 1529 1529 1529
1474 1475 1475 1476 1477 1479 1481 1482 1484 1485 1487 1488 1489 1490 1491 1492 1493 1494 1495 1496 1498 1499 1500 1501 1502 1503 1504 1505 1506 1507 1508 1509 1509 1509 1509 1508 1508 1509 1510 1511 1511 1513 1514 1515 1516 1518 1519 1519 1520 1521 1522 1522 1523 1524 1525 1526 1526 1527 1527 1527 1527 1528 1528 1528 1528 1528 1528 1528 1528
1472 1473 1474 1475 1476 1478 1480 1481 1483 1485 1486 1487 1488 1489 1490 1491 1492 1493 1494 1495 1496 1497 1499 1500 1501 1502 1503 1504 1505 1506 1506 1507 1507 1507 1506 1506 1507 1508 1509 1510 1510 1511 1512 1514 1515 1516 1517 1517 1518 1519 1520 1521 1522 1522 1523 1524 1525 1525 1526 1526 1526 1526 1526 1527 1526 1526 1526 1526 1526
1471 1472 1473 1475 1476 1477 1479 1480 1482 1483 1485 1486 1487 1488 1489 1490 1491 1492 1493 1494 1495 1496 1498 1499 1500 1501 1501 1502 1503 1504 1505 1505 1505 1505 1504 1504 1505 1506 1508 1509 1509 1510 1511 1512 1513 1514 1515 1516 1516 1517 1518 1520 1521 1521 1522 1523 1523 1524 1524 1524 1525 1525 1525 1525 1525 1525 1525 1525 1525
1470 1471 1472 1474 1475 1476 1478 1479 1481 1482 1484 1485 1486 1487 1488 1489 1490 1491 1492 1493 1494 1496 1496 1497 1498 1499 1500 1501 1501 1502 1502 1503 1503 1503 1503 1503 1504 1505 1506 1507 1508 1509 1509 1510 1511 1512 1513 1514 1514 1515 1516 1518 1519 1520 1521 1521 1522 1522 1522 1523 1523 1524 1524 1524 1524 1524 1524 1524 1524
1469 1471 1472 1473 1474 1476 1477 1478 1480 1481 1482 1483 1485 1486 1487 1488 1489 1490 1491 1492 1493 1494 1495 1496 1497 1498 1499 1499 1500 1501 1501 1501 1501 1501 1501 1501 1502 1504 1505 1506 1506 1507 1508 1508 1509 1510 1511 1512 1513 1514 1515 1516 1517 1518 1519 1520 1520 1521 1521 1522 1522 1522 1522 1523 1523 1523 1523 1523 1523
1468 1470 1471 1472 1473 1475 1476 1477 1479 1480 1481 1482 1484 1485 1486 1487 1488 1489 1490 1491 1492 1493 1494 1495 1496 1497 1497 1498 1498 1499 1499 1500 1500 1500 1500 1501 1501 1502 1503 1504 1505 1505 1506 1506 1507 1508 1509 1511 1512 1512 1513 1513 1515 1516 1517 1518 1518 1519 1520 1520 1521 1521 1521 1521 1521 1521 1521 1521 1521
1467 1469 1470 1471 1472 1474 1475 1476 1478 1479 1480 1481 1482 1484 1485 1486 1487 1488 1489 1490 1491 1492 1493 1494 1495 1496 1496 1496 1497 1497 1498 1498 1499 1499 1499 1500 1500 1501 1502 1502 1503 1503 1504 1505 1506 1507 1508 1509 1510 1510 1511 1511 1512 1514 1515 1516 1516 1517 1518 1518 1519 1519 1520 1520 1520 1520 1520 1520 1520
1466 1468 1469 1470 1471 1473 1474 1475 1476 1478 1479 1480 1481 1483 1484 1485 1486 1487 1488 1489 1490 1491 1492 1493 1493 1494 1495 1495 1496 1496 1496 1497 1497 1498 1498 1498 1499 1499 1500 1501 1501 1502 1502 1503 1504 1506 1506 1507 1507 1508 1509 1510 1511 1512 1513 1514 1515 1515 1516 1516 1517 1517 1517 1518 1518 1518 1518 1518 1518
1466 1467 1468 1469 1471 1472 1473 1474 1476 1476 1478 1479 1480 1481 1483 1484 1485 1486 1487 1488 1489 1490 1491 1491 1492 1493 1493 1494 1495 1495 1496 1496 1496 1496 1497 1497 1497 1498 1499 1500 1500 1501 1501 1502 1503 1504 1504 1505 1505 1506 1507 1508 1509 1510 1511 1511 1512 1513 1514 1515 1515 1515 1516 1516 1516 1516 1516 1516 1517
1465 1466 1467 1469 1470 1471 1472 1473 1474 1476 1477 1478 1479 1481 1481 1483 1484 1485 1486 1486 1487 1488 1489 1490 1491 1491 1492 1493 1493 1494 1494 1494 1495 1495 1495 1496 1496 1496 1497 1498 1499 1499 1500 1500 1501 1502 1502 1503 1504 1504 1505 1506 1507 1508 1509 1509 1510 1511 1512 1513 1514 1514 1514 1515 1515 1514 1514 1515 1515
1464 1465 1466 1468 1469 1470 1471 1472 1473 1475 1476 1477 1478 1480 1481 1482 1483 1484 1485 1486 1486 1487 1488 1489 1490 1490 1491 1491 1492 1492 1493 1493 1493 1494 1494 1494 1494 1495 1496 1496 1497 1497 1498 1499 1500 1500 1501 1501 1502 1502 1503 1505 1506 1506 1507 1508 1508 1509 1510 1511 1512 1513 1514 1513 1513 1513 1513 1513 1514
1463 1464 1466 1467 1468 1469 1470 1471 1472 1474 1475 1476 1477 1479 1480 1481 1482 1483 1484 1485 1486 1486 1487 1488 1488 1489 1490 1490 1491 1491 1492 1492 1492 1492 1492 1493 1493 1493 1494 1495 1495 1496 1496 1497 1497 1498 1498 1499 1499 1501 1502 1503 1504 1505 1506 1506 1506 1507 1508 1510 1511 1512 1513 1512 1512 1512 1512 1512 1512
1462 1463 1465 1466 1467 1468 1469 1471 1472 1473 1474 1475 1476 1478 1479 1480 1481 1482 1483 1484 1484 1485 1486 1486 1487 1488 1488 1489 1490 1490 1490 1491 1491 1491 1491 1491 1492 1492 1493 1493 1494 1494 1495 1495 1496 1496 1496 1497 1497 1499 1500 1501 1502 1503 1504 1504 1504 1505 1506 1508 1510 1511 1511 1511 1511 1511 1511 1511 1511
1461 1463 1464 1465 1466 1467 1469 1470 1471 1472 1473 1475 1476 1477 1478 1479 1480 1481 1482 1482 1483 1484 1484 1485 1486 1486 1487 1488 1488 1489 1489 1489 1490 1490 1490 1491 1491 1491 1491 1492 1492 1492 1493 1493 1494 1494 1494 1495 1496 1497 1498 1500 1501 1501 1501 1502 1502 1504 1505 1507 1509 1510 1510 1510 1510 1510 1510 1510 1510
1461 1462 1463 1464 1466 1467 1468 1469 1470 1471 1472 1474 1475 1476 1477 1478 1479 1480 1481 1481 1482 1483 1483 1484 1485 1485 1486 1486 1487 1487 1488 1488 1488 1489 1489 1489 1490 1490 1490 1491 1491 1491 1491 1492 1492 1492 1493 1493 1494 1495 1496 1498 1499 1499 1500 1500 1501 1502 1505 1506 1508 1509 1508 1508 1508 1508 1508 1508 1508
1460 1461 1463 1464 1465 1466 1467 1468 1470 1471 1472 1473 1474 1475 1476 1477 1478 1479 1479 1480 1481 1482 1482 1483 1483 1484 1485 1485 1486 1486 1486 1487 1487 1488 1488 1488 1488 1489 1489 1489 1490 1490 1491 1491 1491 1491 1491 1492 1492 1493 1495 1496 1497 1498 1498 1498 1500 1501 1504 1506 1506 1507 1507 1507 1507 1507 1507 1507 1507
1460 1461 1462 1463 1465 1466 1467 1468 1469 1470 1471 1472 1473 1474 1475 1476 1477 1478 1478 1479 1480 1481 1481 1482 1482 1483 1483 1484 1484 1485 1485 1486 1486 1486 1487 1487 1487 1488 1488 1488 1489 1489 1489 1490 1490 1490 1490 1491 1491 1492 1493 1494 1495 1496 1496 1497 1498 1500 1502 1504 1505 1506 1506 1506 1506 1506 1506 1506 1506
1459 1461 1462 1463 1464 1465 1466 1467 1468 1469 1470 1471 1472 1473 1474 1475 1476 1477 1477 1478 1479 1480 1480 1481 1481 1482 1482 1483 1483 1484 1484 1484 1485 1485 1486 1486 1486 1486 1487 1487 1487 1488 1488 1488 1488 1489 1489 1489 1490 1491 1491 1493 1494 1495 1495 1496 1497 1499 1501 1503 1504 1504 1505 1505 1505 1505 1505 1505 1505
1459 1460 1461 1462 1463 1464 1465 1466 1467 1468 1469 1470 1471 1472 1473 1474 1475 1476 1476 1477 1478 1479 1479 1480 1480 1481 1481 1482 1482 1482 1483 1483 1484 1484 1484 1485 1485 1485 1486 1486 1486 1486 1487 1487 1487 1488 1488 1488 1489 1490 1490 1491 1492 1493 1494 1495 1497 1499 1500 1501 1502 1503 1503 1503 1503 1503 1503 1504 1504
1458 1459 1461 1461 1462 1463 1464 1466 1466 1467 1468 1469 1470 1471 1472 1473 1474 1475 1476 1476 1477 1477 1478 1479 1479 1480 1480 1481 1481 1481 1482 1482 1482 1483 1483 1483 1483 1484 1484 1485 1485 1485 1486 1486 1486 1486 1487 1487 1488 1488 1489 1490 1491 1492 1493 1495 1496 1498 1500 1501 1501 1502 1502 1502 1502 1503 1503 1503 1503
1458 1459 1460 1461 1462 1463 1464 1465 1466 1466 1467 1468 1469 1470 1471 1472 1473 1474 1474 1475 1476 1476 1477 1478 1478 1479 1479 1480 1480 1480 1481 1481 1481 1481 1482 1482 1482 1483 1483 1483 1484 1484 1484 1485 1485 1486 1486 1486 1487 1487 1488 1489 1490 1491 1493 1494 1496 1497 1499 1500 1500 1501 1501 1501 1502 1502 1502 1502 1502
1457 1458 1459 1460 1461 1462 1463 1464 1465 1466 1466 1467 1468 1469 1470 1471 1472 1472 1473 1474 1475 1475 1476 1476 1477 1477 1478 1478 1479 1479 1479 1480 1480 1481 1481 1481 1481 1482 1482 1482 1483 1483 1483 1484 1484 1485 1485 1485 1486 1486 1487 1488 1489 1491 1492 1494 1496 1497 1498 1499 1499 1500 1500 1501 1501 1501 1501 1501 1501
1456 1457 1458 1459 1460 1461 1462 1463 1464 1465 1466 1466 1467 1468 1469 1470 1471 1471 1472 1473 1474 1474 1475 1475 1476 1476 1477 1477 1477 1478 1478 1479 1479 1479 1480 1480 1481 1481 1481 1481 1482 1482 1482 1483 1483 1483 1484 1484 1485 1486 1486 1487 1489 1490 1492 1493 1495 1496 1497 1498 1498 1499 1499 1500 1500 1500 1500 1500 1500
1456 1456 1457 1458 1459 1460 1461 1462 1463 1464 1465 1466 1466 1467 1468 1469 1470 1470 1471 1472 1472 1473 1473 1474 1474 1475 1475 1476 1476 1476 1477 1477 1478 1478 1479 1479 1479 1480 1480 1481 1481 1481 1481 1482 1482 1482 1483 1483 1484 1485 1486 1487 1488 1490 1491 1493 1494 1495 1496 1496 1497 1498 1498 1498 1499 1499 1499 1498 1498
1455 1456 1456 1457 1458 1459 1460 1461 1462 1463 1463 1464 1465 1466 1467 1468 1468 1469 1470 1470 1471 1471 1472 1472 1473 1473 1474 1474 1475 1475 1476 1476 1477 1477 1477 1478 1478 1479 1479 1479 1480 1480 1480 1481 1481 1481 1481 1482 1483 1484 1485 1486 1488 1489 1491 1492 1493 1494 1495 1496 1496 1496 1497 1497 1497 1497 1497 1497 1497
1454 1455 1456 1456 1457 1458 1459 1460 1461 1461 1462 1463 1464 1465 1466 1466 1467 1468 1468 1469 1470 1470 1471 1471 1472 1472 1473 1473 1474 1474 1475 1475 1476 1476 1476 1477 1477 1477 1478 1478 1479 1479 1479 1480 1480 1480 1481 1481 1482 1483 1484 1486 1487 1488 1490 1491 1492 1493 1494 1495 1495 1496 1496 1496 1496 1496 1496 1496 1496
1453 1454 1455 1455 1456 1457 1458 1459 1460 1461 1461 1462 1463 1464 1464 1465 1466 1466 1467 1467 1468 1469 1469 1470 1470 1471 1471 1472 1472 1473 1473 1474 1474 1475 1475 1476 1476 1476 1477 1477 1477 1478 1478 1478 1479 1479 1480 1481 1481 1482 1483 1485 1486 1488 1489 1490 1491 1492 1493 1493 1494 1495 1495 1495 1495 1495 1495 1494 1494
1452 1453 1454 1455 1455 1456 1457 1458 1459 1459 1460 1461 1461 1462 1463 1464 1464 1465 1466 1466 1467 1467 1468 1468 1469 1470 1470 1471 1471 1471 1472 1472 1473 1473 1474 1474 1475 1475 1476 1476 1476 1476 1477 1477 1478 1478 1479 1480 1481 1482 1483 1484 1486 1487 1488 1489 1490 1491 1492 1492 1493 1493 1494 1494 1494 1493 1493 1493 1493
1452 1452 1453 1454 1455 1455 1456 1457 1458 1458 1459 1460 1461 1461 1462 1462 1463 1464 1464 1465 1466 1466 1466 1467 1467 1468 1469 1469 1469 1470 1470 1471 1471 1472 1473 1473 1474 1474 1474 1475 1475 1476 1476 1476 1477 1477 1478 1479 1480 1481 1482 1484 1485 1486 1487 1489 1490 1490 1491 1491 1492 1492 1492 1492 1492 1492 1492 1492 1492
1451 1452 1453 1453 1454 1455 1456 1456 1457 1457 1458 1459 1460 1460 1461 1461 1462 1462 1463 1463 1464 1465 1465 1466 1466 1466 1467 1467 1468 1468 1469 1469 1470 1471 1471 1472 1472 1472 1473 1473 1474 1475 1475 1476 1476 1477 1477 1478 1480 1481 1482 1483 1484 1486 1487 1488 1489 1489 1490 1491 1491 1491 1491 1491 1491 1491 1491 1491 1491
1451 1452 1452 1453 1454 1454 1455 1456 1456 1457 1457 1458 1458 1459 1460 1460 1461 1461 1462 1462 1463 1463 1464 1464 1465 1465 1466 1466 1466 1467 1467 1468 1469 1469 1470 1471 1471 1471 1472 1472 1473 1474 1474 1475 1475 1476 1477 1478 1479 1480 1481 1482 1484 1485 1486 1487 1488 1488 1489 1489 1490 1490 1490 1490 1490 1490 1490 1490 1489
1451 1451 1452 1453 1453 1454 1454 1455 1456 1456 1456 1457 1458 1458 1459 1459 1460 1460 1461 1461 1461 1462 1462 1463 1463 1464 1464 1465 1465 1466 1466 1467 1467 1468 1469 1469 1470 1470 1471 1471 1472 1473 1473 1474 1475 1476 1476 1477 1478 1480 1481 1482 1483 1484 1485 1486 1487 1487 1488 1488 1488 1488 1489 1489 1489 1488 1488 1488 1488
1451 1451 1452 1452 1453 1453 1454 1455 1455 1456 1456 1456 1457 1457 1458 1458 1459 1459 1459 1460 1460 1461 1461 1461 1462 1462 1463 1463 1464 1465 1465 1466 1466 1467 1467 1468 1468 1469 1470 1471 1471 1472 1472 1473 1474 1475 1476 1477 1478 1479 1480 1481 1482 1483 1484 1485 1486 1486 1486 1487 1487 1487 1487 1487 1487 1487 1487 1486 1486
1450 1451 1451 1452 1452 1453 1453 1454 1454 1455 1455 1456 1456 1456 1457 1457 1458 1458 1458 1459 1459 1460 1460 1460 1461 1461 1462 1462 1463 1464 1464 1465 1466 1466 1466 1467 1467 1468 1469 1470 1471 1471 1472 1473 1474 1475 1476 1476 1477 1479 1480 1481 1482 1483 1484 1484 1485 1485 1485 1486 1486 1486 1486 1486 1486 1486 1486 1485 1485
1450 1451 1451 1451 1452 1452 1453 1453 1454 1454 1455 1455 1456 1456 1456 1456 1457 1457 1457 1458 1458 1459 1459 1459 1460 1460 1461 1461 1462 1462 1463 1464 1464 1465 1466 1466 1466 1467 1468 1469 1470 1471 1471 1472 1473 1474 1475 1476 1477 1478 1479 1480 1481 1482 1482 1483 1483 1484 1484 1484 1484 1485 1485 1485 1484 1484 1484 1484 1483
1450 1450 1451 1451 1451 1452 1452 1453 1453 1454 1454 1455 1455 1455 1456 1456 1456 1456 1457 1457 1457 1458 1458 1459 1459 1460 1460 1461 1461 1461 1462 1463 1463 1464 1465 1465 1466 1466 1467 1468 1469 1470 1471 1472 1473 1474 1475 1476 1477 1478 1479 1480 1480 1481 1481 1482 1482 1482 1483 1483 1483 1483 1483 1483 1483 1482 1482 1481 1481
1449 1450 1450 1451 1451 1451 1452 1452 1453 1453 1454 1454 1454 1455 1455 1455 1456 1456 1456 1456 1457 1457 1457 1458 1458 1459 1459 1460 1460 1461 1461 1462 1462 1463 1464 1465 1465 1466 1467 1468 1469 1470 1471 1472 1473 1474 1475 1476 1477 1478 1478 1479 1480 1480 1480 1481 1481 1481 1481 1481 1481 1481 1481 1481 1481 1480 1480 1479 1479
1449 1449 1450 1450 1451 1451 1451 1452 1452 1453 1453 1453 1454 1454 1454 1455 1455 1455 1456 1456 1456 1457 1457 1457 1458 1458 1458 1459 1459 1460 1461 1461 1462 1463 1463 1464 1465 1466 1467 1468 1469 1470 1471 1472 1473 1474 1475 1476 1476 1477 1477 1478 1478 1479 1479 1479 1479 1479 1479 1480 1479 1479 1479 1478 1478 1478 1478 1477 1477